Regional Weather Roundup
Issued by NWS

Home | Current Version | Previous Version | Text Only | Print | Product List | Glossary On
Versions: 1 2 3 4 5 6 7 8 9 10 11 12 13 14 15 16 17 18 19 20 21 22 23 24 25 26 27 28 29 30 31 32 33 34 35 36 37 38 39 40 41 42 43 44 45 46 47 48 49 50
000
ASUS45 KABQ 250810
RWRNM
NEW MEXICO REGIONAL WEATHER ROUNDUP
NATIONAL WEATHER SERVICE ALBUQUERQUE NM
100 AM MST SAT FEB 25 2017

NOTE: "FAIR" MEANS FEW OR NO CLOUDS BELOW 12,000 FEET AGL WITH NO
       SIGNIFICANT WEATHER OR OBSTRUCTIONS TO VISION.

      THIS PRODUCT IS RELEASED AS TWO VERSIONS.  ONE VERSION NEAR
      THE TOP OF THE HOUR CONTAINING PRELIMINARY DATA FROM ALBUQUERQUE
      AND OTHER STATIONS.  A FINAL VERSION WITH ADDITIONAL DATA IS
      ISSUED ABOUT 10 MINUTES AFTER THE HOUR.

NMZ501-503-504-510>518-250900-
NORTHWEST PLATEAU/NORTHCENTRAL MOUNTAINS

CITY           SKY/WX    TMP DP  RH WIND       PRES   REMARKS
FARMINGTON     FAIR      19  11  70 NE3       30.07S
LOS ALAMOS     FAIR      23  -1  34 SE3       30.05S
SANTA FE       FAIR      19  -1  41 N7        30.05R WCI  10
TAOS           FAIR      18  -2  41 SW5       30.03S WCI  11
ANGEL FIRE     FAIR      15   1  54 S9        29.99S WCI   3

$$
NMZ402-403-502-505>509-250900-
WESTCENTRAL MOUNTAINS/SOUTHWEST MOUNTAINS

CITY           SKY/WX    TMP DP  RH WIND       PRES   REMARKS
GALLUP         FAIR      17   5  59 CALM      30.09S
GRANTS         FAIR      17   4  58 CALM      30.10S
SILVER CITY    FAIR      35  10  36 NW13      30.11F WCI  26

$$
NMZ407-409-411-412-250900-
SOUTHERN DESERTS

CITY           SKY/WX    TMP DP  RH WIND       PRES   REMARKS
DEMING         FAIR      37  11  34 W9        30.11S WCI  30
LAS CRUCES     FAIR      42   6  22 NW8       30.09S
HOLLOMAN AFB   FAIR      38   8  29 E5        30.11R WCI  34
ALAMOGORDO     FAIR      37   5  25 E6        30.08F WCI  33
T OR C         FAIR      38  10  31 NW7       30.06F WCI  33

$$
NMZ519>523-250900-
CENTRAL VALLEYS/CENTRAL HIGHLANDS

CITY           SKY/WX    TMP DP  RH WIND       PRES   REMARKS
ALBUQUERQUE    FAIR      32  -2  23 N3        30.10R
DOUBLE EAGLE   FAIR      19   1  45 NW5       30.09S WCI  12
MORIARTY ARPT  FAIR      16  -1  47 SE5       30.08S WCI   9
CLINES CORNERS FAIR      19  -3  38 NW10      30.05S WCI   7
BELEN          FAIR      27   2  34 NE5       30.10S WCI  22
SOCORRO        FAIR      37   4  25 CALM      30.09S

$$
NMZ524>526-539-540-250900-
SOUTHCENTRAL MOUNTAINS

CITY           SKY/WX    TMP DP  RH WIND       PRES   REMARKS
RUIDOSO        FAIR      30  -2  24 W8        30.09S WCI  23

$$
NMZ527>531-250900-
NORTHEAST HIGHLANDS/NORTHEAST PLAINS

CITY           SKY/WX    TMP DP  RH WIND       PRES   REMARKS
LAS VEGAS      FAIR      10   5  80 NE5       30.03R WCI   2
RATON          FAIR      14   7  73 W10       30.02F WCI   1
CLAYTON        FAIR      17  14  88 CALM      30.09S

$$
NMZ532>537-250900-
EASTCENTRAL PLAINS

CITY           SKY/WX    TMP DP  RH WIND       PRES   REMARKS
TUCUMCARI      FAIR      21  11  65 NE3       30.13R
CANNON AFB     NOT AVBL
CLOVIS AIRPORT FAIR      21  12  68 NE7       30.11R WCI  13

$$
NMZ028-029-538-250900-
SOUTHEAST PLAINS

CITY           SKY/WX    TMP DP  RH WIND       PRES   REMARKS
ROSWELL        FAIR      36   8  31 N6          N/A  WCI  31
ARTESIA        FAIR      36  12  38 CALM      30.09R
CARLSBAD       FAIR      45   8  22 NW12      30.05R


$$




USA.gov is the U.S. government's official web portal to all federal, state and local government web resources and services.